Estación de Morza

Ultimos registro cada 15 minutos 60
Estación Fecha / Hora Temperatura Humedad Lluvia Velocidad Dirección Radiación Presion
60 Morza 09-05-2026 14:45 16,9 61 0 0,9 267 371 1014,4
59 Morza 09-05-2026 14:30 16,5 62 0 0 299 397 1014,6
58 Morza 09-05-2026 14:15 16 66 0 0,9 280 418 1014,7
57 Morza 09-05-2026 14:00 15,6 64 0 0 238 436 1014,8
56 Morza 09-05-2026 13:45 15,2 68 0 0,9 293 452 1014,8
55 Morza 09-05-2026 13:30 14,8 68 0 1,8 283 464 1015
54 Morza 09-05-2026 13:15 14,4 67 0 1,3 213 473 1015,2
53 Morza 09-05-2026 13:00 13,9 71 0 0,9 264 480 1015,2
52 Morza 09-05-2026 12:45 13,4 72 0 0,9 311 480 1015,5
51 Morza 09-05-2026 12:30 13,5 75 0 1,8 296 478 1015,6
50 Morza 09-05-2026 12:15 13,3 75 0 1,8 325 478 1015,9
49 Morza 09-05-2026 12:00 13,1 78 0 0,4 318 475 1015,9
48 Morza 09-05-2026 11:45 12,2 77 0 0 273 468 1016
47 Morza 09-05-2026 11:30 11,8 80 0 0,4 315 459 1016
46 Morza 09-05-2026 11:15 11,1 83 0 0,9 5 436 1016,2
45 Morza 09-05-2026 11:00 11 84 0 0,4 26 454 1016,1
44 Morza 09-05-2026 10:45 10,1 86 0 0,4 60 508 1016,1
43 Morza 09-05-2026 10:30 9,1 89 0 0,4 13 223 1016,2
42 Morza 09-05-2026 10:15 8,7 90 0 0,4 15 197 1016,2
41 Morza 09-05-2026 10:00 8,4 91 0 0 18 116 1016,4
40 Morza 09-05-2026 09:45 8,1 90 0 0,4 265 107 1016,4
39 Morza 09-05-2026 09:30 8 92 0 0,4 248 91 1016,5
38 Morza 09-05-2026 09:15 7,7 93 0 0 235 81 1016,4
37 Morza 09-05-2026 09:00 7,5 93 0 0,4 265 54 1016,4
36 Morza 09-05-2026 08:45 7,4 93 0 0,9 287 39 1016,6
35 Morza 09-05-2026 08:30 7,4 93 0 1,8 301 25 1016,5
34 Morza 09-05-2026 08:15 7,7 92 0 0,9 272 19 1016,3
33 Morza 09-05-2026 08:00 7,9 92 0 0,9 285 14 1016,3
32 Morza 09-05-2026 07:45 8,1 92 0 0 275 0 1016,4
31 Morza 09-05-2026 07:30 8,3 91 0 0 255 0 1016,5
30 Morza 09-05-2026 07:15 8,6 91 0 0,4 315 0 1016,5
29 Morza 09-05-2026 07:00 8,7 91 0 0 252 0 1016,4
28 Morza 09-05-2026 06:45 8,8 90 0 0 108 0 1016,5
27 Morza 09-05-2026 06:30 8,8 90 0 0 108 0 1016,5
26 Morza 09-05-2026 06:15 8,9 90 0 0 108 0 1016,7
25 Morza 09-05-2026 06:00 9 90 0 0 138 0 1016,7
24 Morza 09-05-2026 05:45 9,1 90 0 0 172 0 1016,6
23 Morza 09-05-2026 05:30 9,1 91 0 0 172 0 1016,6
22 Morza 09-05-2026 05:15 9,1 91 0 0 161 0 1016,6
21 Morza 09-05-2026 05:00 9,1 92 0 0 161 0 1016,7
20 Morza 09-05-2026 04:45 9 92 0 0 165 0 1016,6
19 Morza 09-05-2026 04:30 9 93 0 0 165 0 1016,7
18 Morza 09-05-2026 04:15 8,9 92 0 0 165 0 1016,8
17 Morza 09-05-2026 04:00 8,9 93 0 0 165 0 1016,9
16 Morza 09-05-2026 03:45 8,9 93 0 0 165 0 1017
15 Morza 09-05-2026 03:30 8,9 93 0 0 165 0 1017,1
14 Morza 09-05-2026 03:15 8,8 93 0 0 165 0 1017,4
13 Morza 09-05-2026 03:00 8,8 93 0 0 165 0 1017,3
12 Morza 09-05-2026 02:45 8,8 93 0 0 165 0 1017,3
11 Morza 09-05-2026 02:30 8,8 94 0 0 165 0 1017,4
10 Morza 09-05-2026 02:15 8,7 93 0 0 165 0 1017,7
9 Morza 09-05-2026 02:00 8,5 93 0 0 165 0 1017,7
8 Morza 09-05-2026 01:45 8,3 93 0 0 177 0 1017,8
7 Morza 09-05-2026 01:30 8,3 93 0 0 186 0 1017,8
6 Morza 09-05-2026 01:15 8,5 93 0 0 172 0 1017,9
5 Morza 09-05-2026 01:00 8,7 94 0 0 129 0 1017,8
4 Morza 09-05-2026 00:45 8,7 95 0 0,4 137 0 1017,8
3 Morza 09-05-2026 00:30 8,6 95 0 0 148 0 1017,7
2 Morza 09-05-2026 00:15 8,4 95 0 0 236 0 1017,5
1 Morza 09-05-2026 00:00 8,2 95 0 0 247 0 1017,5